EN

Hourly Weather Buryl

Today, 15 April, Thursday

Time Temperature Precipitation Wind Pressure Humidity
00:00 +13°C° 0 mm 1 mps 709 mmHg 58%
01:00 +12°C° 0 mm 1 mps 709 mmHg 59%
02:00 +12°C° 0 mm 1 mps 709 mmHg 60%
03:00 +11°C° 0 mm 1 mps 709 mmHg 61%
04:00 +11°C° 0 mm 1 mps 709 mmHg 62%
05:00 +10°C° 0 mm 1 mps 710 mmHg 63%
06:00 +10°C° 0 mm 2 mps 710 mmHg 58%
07:00 +12°C° 0 mm 2 mps 710 mmHg 54%
08:00 +13°C° 0 mm 2 mps 711 mmHg 50%
09:00 +15°C° 0 mm 2 mps 711 mmHg 46%
10:00 +17°C° 0 mm 2 mps 711 mmHg 43%
11:00 +18°C° 0 mm 2 mps 711 mmHg 39%
12:00 +19°C° 0 mm 2 mps 711 mmHg 37%
13:00 +20°C° 0 mm 2 mps 711 mmHg 35%
14:00 +21°C° 0 mm 3 mps 711 mmHg 34%
15:00 +21°C° 0.1 mm 3 mps 711 mmHg 36%
16:00 +20°C° 0.1 mm 3 mps 711 mmHg 39%
17:00 +20°C° 0.1 mm 3 mps 711 mmHg 42%
18:00 +18°C° 0.1 mm 2 mps 711 mmHg 50%
19:00 +16°C° 0.1 mm 2 mps 711 mmHg 59%
20:00 +14°C° 0.1 mm 2 mps 711 mmHg 67%
21:00 +14°C° 0 mm 2 mps 711 mmHg 68%
22:00 +13°C° 0 mm 2 mps 710 mmHg 69%
23:00 +13°C° 0 mm 2 mps 710 mmHg 70%

Tomorrow, 16 April, Friday

Time Temperature Precipitation Wind Pressure Humidity
00:00 +13°C° 0 mm 2 mps 710 mmHg 70%
01:00 +12°C° 0 mm 2 mps 709 mmHg 70%
02:00 +12°C° 0 mm 2 mps 709 mmHg 70%
03:00 +12°C° 0 mm 2 mps 709 mmHg 68%
04:00 +12°C° 0 mm 2 mps 710 mmHg 66%
05:00 +12°C° 0 mm 2 mps 710 mmHg 65%
06:00 +14°C° 0 mm 2 mps 710 mmHg 58%
07:00 +16°C° 0 mm 2 mps 710 mmHg 52%
08:00 +18°C° 0 mm 2 mps 711 mmHg 45%
09:00 +20°C° 0 mm 2 mps 711 mmHg 40%
10:00 +21°C° 0 mm 3 mps 711 mmHg 34%
11:00 +23°C° 0 mm 4 mps 711 mmHg 28%
12:00 +23°C° 0 mm 4 mps 711 mmHg 28%
13:00 +23°C° 0 mm 5 mps 711 mmHg 29%
14:00 +24°C° 0 mm 6 mps 711 mmHg 29%
15:00 +23°C° 0 mm 6 mps 711 mmHg 31%
16:00 +22°C° 0 mm 6 mps 711 mmHg 33%
17:00 +21°C° 0 mm 5 mps 711 mmHg 35%
18:00 +20°C° 0 mm 4 mps 712 mmHg 38%
19:00 +18°C° 0 mm 3 mps 712 mmHg 40%
20:00 +18°C° 0 mm 1 mps 712 mmHg 43%
21:00 +16°C° 0 mm 2 mps 712 mmHg 45%
22:00 +15°C° 0 mm 2 mps 711 mmHg 46%
23:00 +15°C° 0 mm 2 mps 711 mmHg 48%

Day after tomorrow, 17 April, Saturday

Time Temperature Precipitation Wind Pressure Humidity
00:00 +14°C° 0 mm 2 mps 711 mmHg 48%
01:00 +14°C° 0 mm 2 mps 711 mmHg 49%
02:00 +13°C° 0 mm 2 mps 710 mmHg 49%
03:00 +13°C° 0 mm 2 mps 711 mmHg 49%
04:00 +13°C° 0 mm 2 mps 711 mmHg 49%
05:00 +12°C° 0 mm 2 mps 711 mmHg 49%
06:00 +14°C° 0 mm 2 mps 711 mmHg 45%
07:00 +16°C° 0 mm 1 mps 712 mmHg 41%
08:00 +19°C° 0 mm 1 mps 712 mmHg 37%
09:00 +20°C° 0 mm 1 mps 712 mmHg 34%
10:00 +20°C° 0 mm 2 mps 712 mmHg 31%
11:00 +21°C° 0 mm 2 mps 712 mmHg 29%
12:00 +23°C° 0 mm 2 mps 712 mmHg 28%
13:00 +22°C° 0 mm 3 mps 712 mmHg 27%
14:00 +24°C° 0 mm 3 mps 712 mmHg 26%
15:00 +24°C° 0 mm 3 mps 712 mmHg 27%
16:00 +22°C° 0 mm 3 mps 712 mmHg 28%
17:00 +22°C° 0 mm 3 mps 712 mmHg 29%
18:00 +20°C° 0 mm 3 mps 712 mmHg 33%
19:00 +18°C° 0 mm 2 mps 712 mmHg 37%
20:00 +17°C° 0 mm 2 mps 712 mmHg 41%
21:00 +16°C° 0 mm 2 mps 712 mmHg 43%
22:00 +15°C° 0 mm 2 mps 712 mmHg 44%
23:00 +15°C° 0 mm 1 mps 712 mmHg 45%

18 April, Sunday

Time Temperature Precipitation Wind Pressure Humidity
00:00 +14°C° 0 mm 1 mps 711 mmHg 46%
01:00 +14°C° 0 mm 1 mps 711 mmHg 47%
02:00 +14°C° 0 mm 1 mps 711 mmHg 48%
03:00 +14°C° 0 mm 1 mps 711 mmHg 48%
04:00 +14°C° 0 mm 1 mps 711 mmHg 49%
05:00 +14°C° 0 mm 1 mps 711 mmHg 49%
06:00 +15°C° 0 mm 1 mps 712 mmHg 47%
07:00 +16°C° 0 mm 1 mps 712 mmHg 45%
08:00 +18°C° 0 mm 1 mps 713 mmHg 43%
09:00 +18°C° 0 mm 2 mps 713 mmHg 39%
10:00 +20°C° 0 mm 2 mps 713 mmHg 35%
11:00 +21°C° 0 mm 2 mps 713 mmHg 32%
12:00 +21°C° 0 mm 3 mps 713 mmHg 30%
13:00 +22°C° 0 mm 5 mps 713 mmHg 29%
14:00 +22°C° 0 mm 7 mps 713 mmHg 27%
15:00 +22°C° 0 mm 6 mps 713 mmHg 29%
16:00 +21°C° 0 mm 6 mps 713 mmHg 31%
17:00 +21°C° 0 mm 6 mps 713 mmHg 33%
18:00 +19°C° 0 mm 6 mps 713 mmHg 41%
19:00 +15°C° 0 mm 6 mps 713 mmHg 48%
20:00 +12°C° 0 mm 7 mps 713 mmHg 56%
21:00 +13°C° 0 mm 6 mps 713 mmHg 56%
22:00 +13°C° 0 mm 6 mps 713 mmHg 55%
23:00 +13°C° 0 mm 6 mps 712 mmHg 55%

19 April, Monday

Time Temperature Precipitation Wind Pressure Humidity
00:00 +13°C° 0 mm 6 mps 712 mmHg 53%
01:00 +13°C° 0 mm 5 mps 712 mmHg 52%
02:00 +13°C° 0 mm 5 mps 712 mmHg 50%
03:00 +12°C° 0 mm 4 mps 712 mmHg 50%
04:00 +12°C° 0 mm 4 mps 712 mmHg 49%
05:00 +12°C° 0 mm 4 mps 712 mmHg 48%
06:00 +14°C° 0 mm 4 mps 712 mmHg 44%
07:00 +17°C° 0 mm 4 mps 712 mmHg 40%
08:00 +18°C° 0 mm 4 mps 712 mmHg 36%
09:00 +20°C° 0 mm 3 mps 712 mmHg 30%
10:00 +21°C° 0 mm 2 mps 712 mmHg 25%
11:00 +24°C° 0 mm 2 mps 711 mmHg 20%
12:00 +24°C° 0 mm 2 mps 711 mmHg 19%
13:00 +25°C° 0 mm 3 mps 711 mmHg 19%
14:00 +25°C° 0 mm 3 mps 711 mmHg 19%
15:00 +25°C° 0 mm 3 mps 710 mmHg 20%
16:00 +24°C° 0 mm 3 mps 710 mmHg 21%
17:00 +24°C° 0 mm 3 mps 710 mmHg 23%
18:00 +21°C° 0 mm 3 mps 710 mmHg 29%
19:00 +19°C° 0 mm 3 mps 710 mmHg 35%
20:00 +17°C° 0 mm 3 mps 710 mmHg 41%
21:00 +17°C° 0 mm 3 mps 710 mmHg 41%
22:00 +17°C° 0 mm 3 mps 709 mmHg 41%
23:00 +17°C° 0 mm 3 mps 709 mmHg 40%

20 April, Tuesday

Time Temperature Precipitation Wind Pressure Humidity
00:00 +16°C° 0 mm 2 mps 709 mmHg 42%
01:00 +15°C° 0 mm 2 mps 709 mmHg 44%
02:00 +14°C° 0 mm 2 mps 708 mmHg 46%
03:00 +14°C° 0 mm 2 mps 708 mmHg 46%
04:00 +14°C° 0 mm 2 mps 708 mmHg 46%
05:00 +13°C° 0 mm 3 mps 708 mmHg 46%
06:00 +15°C° 0 mm 2 mps 708 mmHg 43%
07:00 +17°C° 0 mm 2 mps 708 mmHg 39%
08:00 +19°C° 0 mm 2 mps 708 mmHg 36%
09:00 +20°C° 0 mm 2 mps 708 mmHg 33%
10:00 +21°C° 0 mm 2 mps 708 mmHg 30%
11:00 +23°C° 0 mm 2 mps 708 mmHg 27%
12:00 +22°C° 0 mm 4 mps 708 mmHg 29%
13:00 +22°C° 0 mm 6 mps 708 mmHg 31%
14:00 +21°C° 0 mm 7 mps 708 mmHg 33%
15:00 +20°C° 0.1 mm 6 mps 708 mmHg 40%
16:00 +17°C° 0.1 mm 6 mps 708 mmHg 47%
17:00 +16°C° 0.1 mm 5 mps 709 mmHg 53%
18:00 +15°C° 0.7 mm 4 mps 709 mmHg 62%
19:00 +13°C° 0.7 mm 4 mps 710 mmHg 70%
20:00 +12°C° 0.7 mm 4 mps 710 mmHg 78%
21:00 +11°C° 0.6 mm 3 mps 710 mmHg 81%
22:00 +10°C° 0.6 mm 3 mps 711 mmHg 84%
23:00 +9°C° 0.6 mm 3 mps 711 mmHg 86%
Show more

We Need Your Consent

Meteoprog and our Service Providers may store and access personal data such as cookies, device identifiers or other similar technologies on your device and process such data to personalise content and ads, as well as provide social media features and to analyse the traffic.

  • Store and/or access information on your device

    Cookies, device identifiers or other information can be stored or accessed on your device for the purposes indicated above.

  • Personalised ads and content, ad and content measurement, audience insights, and products development

    Ads and content can be personalised based on a profile. More data can be added to better personalise ads and content. Ad and content performance can be measured. Insights about the audience who saw the ads and content can be derived. Such data can be used to develop or improve user’s experience, systems and software.

By clicking ‘I Agree’ you will allow the use of indicated cookies, device identifiers, web beacons or other similar technologies. Your settings can be changed in the browser on your device.

For certain purposes, legitimate interests may be relied on, rather than consent. You can read more about this in our Privacy and Cookie Policy.